This demonstration page uses our WeatherBlox Daily Observations layout. Learn more.

38.89511, -77.03637

Hourly Observations for August 2, 2015

Temp ( °F °C ) Dew Point ( °F °C ) Humidity (%) Winds ( mph kmh ) Pressure ( in mb ) Visibility ( mi km ) Precip ( " mm )
12:52 am 00:52 Mostly Cloudy 81 27 59 15 48 48 NNW 5 7 29.91 1013 10 16.09344 0 0
1:52 am 01:52 Partly Cloudy 77 25 61 16 57 57 N 5 7 29.91 1013 10 16.09344 0 0
2:52 am 02:52 Partly Cloudy 77 25 61 16 57 57 N 6 9 29.91 1013 10 16.09344 0 0
3:52 am 03:52 Mostly Cloudy 77 25 59 15 54 54 NNW 6 9 29.91 1013 10 16.09344 0 0
4:52 am 04:52 Mostly Clear 73 23 59 15 61 61 NNW 5 7 29.91 1013 10 16.09344 0 0
5:52 am 05:52 Partly Cloudy 73 23 61 16 65 65 N 6 9 29.94 1014 10 16.09344 0 0
6:52 am 06:52 Mostly Cloudy 73 23 61 16 65 65 N 6 9 29.94 1014 10 16.09344 0 0
7:52 am 07:52 Mostly Cloudy 77 25 61 16 57 57 Calm 29.94 1014 10 16.09344 0 0
8:52 am 08:52 Mostly Cloudy 79 26 61 16 54 54 N 6 9 29.97 1015 10 16.09344 0 0
9:52 am 09:52 Mostly Cloudy 81 27 61 16 51 51 N 6 9 29.97 1015 10 16.09344 0 0
10:52 am 10:52 Mostly Cloudy 84 29 63 17 48 48 NNE 5 7 29.97 1015 10 16.09344 0 0
11:52 am 11:52 Mostly Cloudy 84 29 63 17 48 48 E 3 6 29.97 1015 10 16.09344 0 0
12:52 pm 12:52 Mostly Cloudy 90 32 57 14 33 33 Calm 29.97 1015 10 16.09344 0 0
1:52 pm 13:52 Mostly Cloudy 90 32 57 14 33 33 SE 3 6 29.94 1014 10 16.09344 0 0
2:52 pm 14:52 Mostly Cloudy 88 31 57 14 35 35 SE 5 7 29.94 1014 10 16.09344 0 0
3:52 pm 15:52 Mostly Cloudy 90 32 55 13 31 31 SW 13 20 29.94 1014 10 16.09344 0 0
4:52 pm 16:52 Mostly Cloudy 88 31 57 14 35 35 SSW 13 20 29.94 1014 10 16.09344 0 0
5:52 pm 17:52 Mostly Cloudy 88 31 61 16 40 40 SSW 13 20 29.91 1013 10 16.09344 0 0
6:52 pm 18:52 Partly Cloudy 86 30 59 15 40 40 SSW 14 22 29.91 1013 10 16.09344 0 0
7:52 pm 19:52 Partly Cloudy 84 29 57 14 40 40 SW 9 15 29.91 1013 10 16.09344 0 0
8:52 pm 20:52 Mostly Clear 84 29 59 15 43 43 W 9 15 29.91 1013 10 16.09344 0 0
9:52 pm 21:52 Clear 81 27 61 16 51 51 S 7 11 29.91 1013 10 16.09344 0 0
10:52 pm 22:52 Clear 79 26 63 17 58 58 S 8 13 29.91 1013 10 16.09344 0 0
11:52 pm 23:52 Clear 77 25 64 18 65 65 SSW 5 7 29.91 1013 10 16.09344 0 0

Powered by AerisWeather